Location: Vienna
(48.2082°N, 16.3738°E)
Time: 13:09:41
(UTC+02:00)

ISS - Visible Passes

Search period start: 22 May 2019 00:00
Search period end: 01 June 2019 00:00
Orbit: 407 x 410 km, 51.6° (Epoch: 22 May)

Date Brightness Start Highest point End Pass type
(mag) Time Alt. Az. Time Alt. Az. Time Alt. Az.
22 May -3.2 01:11:31 10° WNW 01:14:15 54° NW 01:14:15 54° NW visible
22 May -3.8 21:07:00 10° WSW 21:10:17 69° SSE 21:13:35 10° ENE visible
22 May -2.7 22:43:47 10° W 22:47:00 46° N 22:50:13 10° ENE visible
23 May -3.2 00:20:38 10° WNW 00:23:54 55° NNE 00:24:37 43° ENE visible
23 May -1.0 01:57:18 10° WNW 01:57:19 10° WNW 01:57:19 10° WNW visible
23 May -3.0 21:52:46 10° W 21:56:01 54° NNW 21:59:17 10° ENE visible
23 May -2.8 23:29:42 10° WNW 23:32:55 47° N 23:35:08 18° ENE visible
24 May -2.1 01:06:20 10° WNW 01:07:50 24° WNW 01:07:50 24° WNW visible
24 May -2.6 22:38:43 10° WNW 22:41:55 44° N 22:45:06 10° ENE visible
25 May -3.7 00:15:24 10° WNW 00:18:26 71° NW 00:18:26 71° NW visible
25 May -2.6 21:47:42 10° WNW 21:50:53 44° N 21:54:05 10° ENE visible
25 May -3.4 23:24:29 10° WNW 23:27:46 62° NNE 23:29:04 32° E visible
26 May -1.3 01:01:12 10° W 01:01:46 14° W 01:01:46 14° W visible
26 May -3.0 22:33:32 10° WNW 22:36:47 50° N 22:39:44 12° E visible
27 May -2.8 00:10:09 10° WNW 00:12:26 37° W 00:12:26 37° W visible
27 May -2.7 21:42:33 10° WNW 21:45:44 45° N 21:48:56 10° E visible
27 May -3.9 23:19:11 10° WNW 23:22:30 82° SSW 23:23:07 55° SE visible
28 May -3.6 22:28:13 10° WNW 22:31:32 72° NNE 22:33:50 18° ESE visible
29 May -1.9 00:05:02 10° W 00:06:32 20° WSW 00:06:32 20° WSW visible
29 May -3.2 21:37:15 10° WNW 21:40:30 55° NNE 21:43:46 10° E visible
29 May -3.4 23:13:54 10° WNW 23:17:03 42° SSW 23:17:16 42° SSW visible
30 May -3.8 22:22:51 10° WNW 22:26:08 67° SSW 22:28:00 23° SE visible
31 May -1.1 00:00:33 10° WSW 00:00:43 11° WSW 00:00:43 11° WSW visible
31 May -3.8 21:31:50 10° WNW 21:35:10 84° NNE 21:38:29 10° ESE visible
31 May -2.2 23:08:51 10° W 23:11:26 21° SW 23:11:29 21° SW visible
